Location: Svolv�r
(68.2333°N, 14.5651°E)
Time: 08:35:40
(UTC+02:00)

Daily predictions for brighter satellites

Satellite Brightness Start Highest point End
(mag) Time Altitude Azimuth Time Altitude Azimuth Time Altitude Azimuth
Cosmos 1833 Rocket 3.2 17:57:01 10° WNW 18:02:36 64° SW 18:08:09 10° SE
Envisat 3.0 17:57:45 10° SSE 18:02:50 80° ENE 18:07:58 10° NNW
Cosmos 1470 3.2 18:00:18 10° SSE 18:04:06 42° E 18:07:52 10° NNE
CZ-4C R/B 4.1 18:01:39 10° NNE 18:05:10 48° WNW 18:08:43 10° SW
GP-B 3.2 18:00:42 10° N 18:05:12 86° W 18:09:39 10° S
Cosmos 1726 Rocket 4.4 18:01:46 10° SSE 18:05:33 29° E 18:09:21 10° NNE
Cosmos 1825 3.9 18:03:28 10° N 18:06:03 17° NE 18:08:38 10° ENE
Cosmos 1833 4.3 18:01:31 10° WNW 18:07:10 69° N 18:12:49 10° E
Cosmos 1892 3.9 18:04:04 10° NNW 18:07:15 24° NE 18:10:25 10° E
Cosmos 2056 Rocket 3.9 18:02:08 10° WSW 18:07:22 63° NNW 18:12:33 10° NE
Cosmos 921 Rocket 4.4 18:04:08 10° SE 18:07:24 20° E 18:10:37 10° NE
ARGOS 3.9 18:02:57 10° E 18:07:49 34° NE 18:12:41 10° NNW
Cosmos 1328 3.8 18:03:54 10° NNW 18:07:56 75° ENE 18:11:56 10° SSE
Intercosmos 25 2.8 18:08:04 10° S 18:11:18 74° ESE 18:14:43 10° NNE
NOAA 11 4.3 18:06:30 10° SE 18:11:49 57° NE 18:17:08 10° NNW
Cosmos 1624 Rocket 4.4 18:07:20 10° WSW 18:12:33 61° NNW 18:17:49 10° NE
Cosmos 1271 Rocket 3.6 18:10:59 10° NNW 18:14:53 56° WSW 18:18:48 10° S
IRS-1A Rocket 4.4 18:10:48 10° SE 18:16:10 55° NE 18:21:37 10° NNW
Cosmos 1331 Rocket 4.1 18:13:07 10° SSW 18:18:16 66° SE 18:23:26 10° NE
Timation 2 Rocket 4.0 18:13:30 10° W 18:19:36 76° N 18:25:37 10° E
Cosmos 1455 Rocket 3.4 18:15:29 10° SSW 18:19:55 70° WNW 18:24:21 10° NNE
Cosmos 1125 Rocket 4.0 18:15:01 10° WNW 18:20:13 50° NNE 18:25:23 10° E
Cosmos 332 Rocket 4.0 18:15:28 10° SSW 18:20:13 54° ESE 18:25:01 10° NE
Cosmos 1818 4.0 18:15:41 10° WSW 18:21:03 57° SSE 18:26:24 10° E
deb Kosmos-1763 4.2 18:19:58 10° NW 18:23:41 58° NNE 18:27:23 10° ESE
Cosmos 1544 Rocket 3.8 18:19:25 10° SSW 18:23:47 74° WNW 18:28:10 10° NNE
Cosmos 2061 Rocket 4.4 18:18:29 10° NNW 18:24:31 44° NE 18:30:27 10° ESE
Cosmos 1939 Rocket 3.1 18:21:49 10° SE 18:25:46 51° ENE 18:29:48 10° NNW
Okean O Rocket 4.2 18:22:11 10° SSW 18:26:02 27° W 18:29:53 10° NNW
YAOGAN 6 2.5 18:22:59 10° SSE 18:26:38 77° ENE 18:30:14 10° NNW
SJ 16-02 1.4 18:23:39 10° NW 18:28:03 63° NE 18:32:26 10° ESE
Cosmos 2058 Rocket 3.8 18:24:47 10° SSE 18:28:39 32° E 18:32:33 10° NNE
Cosmos 2227 Rocket 2.4 18:23:11 10° WSW 18:28:53 73° NNW 18:34:37 10° ENE
Cosmos 1459 Rocket 4.2 18:23:43 10° NNW 18:29:44 51° NE 18:35:49 10° SE
Cosmos 1689 Rocket 2.4 18:27:07 10° NNE 18:30:06 68° WNW 18:33:03 10° SSW
H-2A R/B 3.5 18:26:26 10° NNE 18:30:39 38° NW 18:34:50 10° WSW
Geosat 4.1 18:25:55 10° NE 18:30:57 63° SE 18:35:58 10° SW
Cosmos 2082 Rocket 2.8 18:25:25 10° NW 18:31:05 61° SW 18:36:42 10° SSE
Cosmos 1184 Rocket 3.0 18:28:06 10° SSW 18:31:26 76° WNW 18:34:46 10° NNE
COSMO-SKYMED 1 3.5 18:28:09 10° NNE 18:31:55 27° E 18:35:39 10° SSE
Cosmos 2297 Rocket 2.4 18:28:14 10° W 18:33:54 72° NNW 18:39:31 10° ENE
Cosmos 2082 3.8 18:30:23 10° WSW 18:36:06 77° NNW 18:41:49 10° ENE
Cosmos 2150 Rocket 4.3 18:31:53 10° NW 18:37:21 61° NNE 18:42:45 10° ESE
Cosmos 2227 4.3 18:31:58 10° SW 18:37:41 76° SE 18:43:27 10° ENE
CZ-2D R/B 3.3 18:34:21 10° SE 18:38:12 62° ENE 18:42:04 10° NNW
GEOS 3 Rocket 3.9 18:33:13 11° E 18:38:13 58° SSE 18:43:22 10° WSW
Cosmos 1605 Rocket 4.0 18:32:20 10° NNW 18:38:39 84° ENE 18:44:50 10° SSE
Cosmos 1300 4.4 18:37:28 10° ESE 18:39:37 15° ENE 18:41:46 10° NE
Aureole 3 3.9 18:36:07 10° SW 18:39:47 49° WNW 18:42:55 10° NNE
Cosmos 1953 Rocket 4.5 18:35:59 10° NNW 18:40:18 53° W 18:44:34 10° S
H-2A R/B 4.2 18:38:19 10° S 18:42:06 44° W 18:45:55 10° NNW
Cosmos 1302 Rocket 4.1 18:38:03 10° SSW 18:43:14 62° SE 18:48:28 10° NE
Cosmos 1934 Rocket 4.3 18:37:14 10° NNW 18:43:33 77° WSW 18:49:55 10° S
CSL-04 Debris 4.3 18:38:25 10° SSE 18:43:55 84° WSW 18:49:28 10° NNW
SL-16 R/B 3.6 18:39:19 10° NNE 18:45:13 44° NW 18:51:06 10° WSW
Ariane Rocket 3.0 18:40:22 10° SE 18:45:28 71° ENE 18:50:35 10° NNW
Okean-O 3.8 18:41:30 10° S 18:45:48 49° WSW 18:50:10 10° NNW
Cosmos 1703 3.7 18:42:34 10° NNW 18:46:32 68° WSW 18:50:27 10° S
CZ-4B R/B 2.6 18:43:49 10° NNE 18:46:46 39° WNW 18:49:40 10° SW
CZ-2C R/B 3.9 18:41:29 10° ESE 18:46:50 40° NE 18:52:01 10° NNW
ATLAS CENTAUR R/B 2.1 18:42:19 10° W 18:47:02 56° S 18:51:06 12° ESE
Cosmos 1992 Rocket 4.4 18:44:11 10° S 18:49:04 42° ESE 18:53:59 10° NE
Cosmos 1766 Rocket 4.0 18:44:59 10° NNW 18:49:06 39° NE 18:53:13 10° SE
Cosmos 1937 Rocket 3.5 18:44:49 10° NW 18:50:01 84° NE 18:55:12 10° SE
Cosmos 858 Rocket 4.5 18:45:18 10° NW 18:50:33 86° NE 18:55:47 10° SE
Cosmos 990 Rocket 4.0 18:47:04 10° NW 18:52:18 87° SW 18:57:33 10° SE
Cosmos 1844 Rocket 3.2 18:47:54 10° S 18:53:09 40° ESE 18:58:22 10° NE
CZ-4 R/B 1.9 18:50:29 10° SSE 18:54:43 68° WSW 18:58:58 10° NNW
Cosmos 1437 4.4 18:52:33 10° N 18:54:44 17° NE 18:55:48 15° ENE
Terra 3.5 18:52:25 11° ENE 18:55:34 20° NNE 18:59:01 10° NNW
Okean 3 Rocket 3.9 18:51:18 10° NNW 18:55:46 49° ENE 19:00:11 10° SE
In-Cosmos 22 Rocket 4.1 18:50:30 10° NNW 18:55:51 65° ENE 19:01:16 10° SE
Cosmos 304 Rocket 3.9 18:51:41 10° SSW 18:56:24 58° SE 19:01:08 10° NE
PSLV R/B 3.9 18:52:40 10° NNE 18:56:50 89° SE 19:00:59 10° SSW
Cosmos 2173 Rocket 4.0 18:50:35 10° NNW 18:56:54 63° ENE 19:03:05 10° SE
Cosmos 1452 Rocket 3.9 18:53:27 10° WSW 18:58:42 63° NNW 19:03:58 10° NE
Cosmos 1242 Rocket 4.2 18:55:35 10° NNW 18:59:03 39° W 19:02:31 10° S
ADEOS Rocket 4.5 18:54:13 10° NNE 19:00:20 24° ENE 19:06:16 10° SE
Cosmos 1408 Rocket 4.1 18:57:38 10° NNW 19:01:42 37° NE 19:05:11 13° ESE
Cosmos 1802 Rocket 4.1 18:55:48 10° NNW 19:02:13 61° ENE 19:08:35 10° SE
Cosmos 1606 Rocket 3.5 18:58:27 10° S 19:02:47 69° ESE 19:07:07 10° NNE
Cosmos 1727 Rocket 4.4 18:57:30 10° SSE 19:03:07 38° E 19:08:44 10° NNE
Nadezhda 3 Rocket 4.0 18:56:50 10° S 19:03:11 78° ESE 19:09:35 10° NNE
HJ-1C 3.3 19:00:52 10° SE 19:04:13 64° ENE 19:07:34 10° NNW
Cosmos 371 Rocket 3.3 19:00:14 10° SW 19:05:04 88° SE 19:09:57 10° NE
Cosmos 1076 Rocket 3.5 19:01:33 10° NNW 19:05:59 80° ENE 19:10:21 10° SSE
Cosmos 2298 Rocket 4.0 19:01:17 10° NW 19:06:39 74° NE 19:11:33 12° ESE
Cosmos 1408 3.4 19:04:04 10° NNW 19:07:30 32° NE 19:09:42 18° ESE
Resurs 01 Rocket 2.4 19:04:53 15° ESE 19:08:02 35° NE 19:12:07 10° NNW
ASTEX 1 3.3 19:06:42 10° N 19:11:40 73° E 19:16:39 10° S
EO 1 Delta rocket 4.2 19:07:53 10° SSE 19:12:43 83° WSW 19:18:32 10° NNW
ATLAS 5 CENTAUR R/B 2.7 19:08:56 10° SSW 19:13:03 32° SE 19:16:07 18° E
FREGAT/IRIS 2.5 19:12:30 14° SE 19:14:49 53° ENE 19:17:36 10° NNW
Cosmos 2219 3.4 19:10:01 10° W 19:15:44 67° N 19:20:07 17° E
USA 186 1.6 19:15:57 28° ESE 19:16:46 38° ENE 19:19:02 10° N
Cosmos 1733 4.3 19:13:39 10° SW 19:17:25 46° WNW 19:21:12 10° NNE
Meteor 1-16 Rocket 4.1 19:12:11 10° S 19:17:32 62° ESE 19:22:49 10° NNE
Cosmos 1725 Rocket 4.1 19:12:04 10° NNW 19:18:15 57° ENE 19:24:28 10° SE
Cosmos 2233 Rocket 4.3 19:12:21 10° NNW 19:18:25 48° NE 19:23:53 13° SE
Spot 2 Rocket 4.2 19:15:18 17° E 19:18:39 37° NE 19:23:20 10° NNW
Cosmos 372 Rocket 4.0 19:13:43 10° NW 19:18:56 75° NE 19:23:10 15° ESE
Resurs 1-3 4.0 19:16:31 16° ESE 19:19:43 43° NE 19:23:54 10° NNW
SKYMED 2 3.7 19:16:06 10° NNE 19:20:22 49° ESE 19:24:36 10° S
Cosmos 1908 3.5 19:16:46 10° S 19:20:30 45° E 19:24:14 10° NNE
SJ-6B 2.8 19:17:14 12° SE 19:20:34 54° ENE 19:24:15 10° NNW
Cosmos 1953 2.4 19:17:12 10° SSW 19:21:18 85° WNW 19:25:24 10° NNE
SPOT 5 4.2 19:18:35 17° ENE 19:21:39 28° NNE 19:26:02 10° NNW
Cosmos 1110 Rocket 4.2 19:16:24 10° WSW 19:21:44 75° NW 19:27:02 10° NE
Cosmos 1607 4.1 19:15:52 10° WSW 19:21:53 58° SSE 19:26:25 18° E
SPOT 3 Rocket 3.6 19:17:23 10° SE 19:22:33 66° ENE 19:27:46 10° NNW
Cosmos 2278 Rocket 3.1 19:18:04 10° SSE 19:22:45 27° ESE 19:26:51 12° ENE
Cosmos 2100 Rocket 3.9 19:16:28 10° NNW 19:22:45 81° ENE 19:28:56 10° SSE
Cosmos 1812 Rocket 4.2 19:19:07 10° SSE 19:23:09 34° E 19:27:12 10° NNE
SL-27 R/B 2.3 19:20:23 10° NW 19:23:44 85° SW 19:26:16 16° SE
Timation 1 Rocket 4.3 19:18:09 10° SW 19:24:07 75° SE 19:29:26 13° ENE
Cosmos 1633 4.4 19:22:23 10° N 19:24:42 16° NE 19:25:32 15° NE
ERS-1 Rocket 4.0 19:22:54 18° E 19:25:40 30° NE 19:30:02 10° NNW
Cosmos 2058 2.9 19:21:38 10° NNW 19:25:55 86° ENE 19:30:09 10° SSE
COSMOS 2487 2.8 19:23:05 10° NW 19:26:30 48° NNE 19:28:10 25° E
MONITOR-E 3.8 19:25:45 10° SSE 19:28:34 86° ENE 19:31:24 10° NNW
Cosmos 1844 4.0 19:23:19 10° SSW 19:28:51 49° SE 19:34:17 11° NE
Cosmos 1726 2.0 19:25:35 10° S 19:29:12 64° ESE 19:32:51 10° NNE
Cosmos 972 Rocket 4.1 19:24:52 10° NW 19:29:52 61° NE 19:33:41 19° ESE
Cosmos 2151 3.0 19:26:36 10° NNW 19:30:54 65° ENE 19:35:05 11° SSE
Cosmos 1758 4.0 19:27:29 10° SW 19:31:25 56° WNW 19:35:22 10° NNE
Lacrosse 5 4.4 19:30:05 10° WSW 19:32:22 13° SW 19:34:39 10° S
YAOGAN 1 3.7 19:29:08 10° S 19:33:20 47° WSW 19:37:34 10° NNW
Cosmos 2228 3.1 19:32:46 10° SSW 19:37:08 84° WNW 19:41:30 10° NNE
Cosmos 1898 Rocket 4.1 19:33:27 10° NW 19:38:36 58° SW 19:43:48 10° SSE
H-2A R/B 2.1 19:33:36 10° SE 19:38:59 70° ENE 19:44:27 10° NNW
Cosmos 1470 3.7 19:36:16 10° SW 19:40:11 51° WNW 19:44:05 10° NNE
Cosmos 2263 Rocket 2.2 19:34:49 10° WSW 19:40:31 86° NNW 19:45:12 15° ENE
Cosmos 1238 Rocket 4.3 19:34:12 10° NNW 19:40:43 53° NE 19:45:38 18° SE
Cosmos 2016 Rocket 4.0 19:35:13 10° NNW 19:41:29 76° ENE 19:47:49 10° SSE
Cosmos 1825 2.5 19:38:51 10° NNW 19:42:31 44° ENE 19:44:00 29° ESE
Cosmos 1726 Rocket 3.6 19:38:41 10° SSW 19:43:04 80° WNW 19:47:28 10° NNE
Cosmos 1892 2.6 19:39:42 10° NNW 19:43:35 75° ENE 19:46:40 15° SSE
Cosmos 921 Rocket 3.0 19:40:36 10° SSW 19:45:01 62° ESE 19:49:24 10° NE
Meteor 2-3 Rocket 3.9 19:39:30 10° NNW 19:45:10 55° NE 19:49:05 20° SE
ARGOS 3.1 19:42:22 11° SE 19:47:36 75° ENE 19:53:03 10° NNW
SL-08 R/B 4.4 19:42:50 10° NNW 19:49:03 75° ENE 19:55:10 10° SSE
MOS 1 4.4 19:43:22 10° SSE 19:49:03 77° WSW 19:54:45 10° NNW
Cosmos 2056 Rocket 4.3 19:45:11 10° WNW 19:50:14 45° N 19:53:52 18° ENE
Cosmos 1356 3.3 19:47:40 10° SSW 19:51:07 79° ESE 19:54:36 10° NNE
Cosmos 1833 4.2 19:46:01 10° WNW 19:51:41 84° SSW 19:55:27 22° SE
USA 116 3.2 19:49:16 10° NNE 19:52:20 50° ESE 19:55:29 10° S
Meteor 2-10 3.8 19:47:30 10° SSW 19:52:32 77° ESE 19:57:37 10° NNE
Cosmos 1743 Rocket 3.7 19:55:25 10° NNW 19:59:43 52° ENE 20:01:33 31° ESE
Cosmos 1331 Rocket 4.4 19:55:16 10° WSW 20:00:26 61° NNW 20:05:06 13° NE
Cosmos 332 Rocket 4.1 19:55:50 10° WSW 20:00:42 66° NNW 20:05:10 13° NE
Cosmos 1939 Rocket 4.0 19:56:53 10° S 20:00:49 46° W 20:04:49 10° NNW
COBE Rocket 4.1 19:55:46 10° NNE 20:01:01 83° WNW 20:06:11 10° SSW
Cosmos 1125 Rocket 3.5 19:57:29 10° NW 20:02:50 83° NE 20:05:51 27° SE
SL-08 RB Rocket 3.6 20:00:12 23° SE 20:03:02 70° ENE 20:07:32 10° NNW
Cosmos 1818 3.8 19:58:55 10° W 20:04:19 63° S 20:07:07 29° ESE
Cosmos 1805 Rocket 4.2 20:00:55 10° NNW 20:05:02 37° NE 20:06:07 32° E
H-2A R/B 4.5 20:02:27 10° NNE 20:05:46 20° NNW 20:09:05 10° WNW
Cosmos 2058 Rocket 3.2 20:02:02 10° SSW 20:06:24 75° WNW 20:10:48 10° NNE
SJ 16-02 2.2 20:02:22 10° NW 20:06:39 49° WSW 20:10:34 12° SSE
Timation 2 Rocket 3.9 20:01:14 10° WNW 20:07:18 83° SSW 20:10:48 27° SE
Cosmos-2242 3.6 20:07:55 34° E 20:08:03 35° E 20:11:59 10° NNE
COSMO-SKYMED 1 2.5 20:04:14 10° NNE 20:08:38 90° WSW 20:13:00 10° SSW
Geosat 4.2 20:05:07 17° ENE 20:09:01 72° NNW 20:14:03 10° WSW
Cosmos 2061 Rocket 4.1 20:04:28 10° NNW 20:10:48 82° WSW 20:17:03 10° S
Sich 1 3.8 20:08:59 10° NNW 20:12:58 34° NE 20:13:42 32° ENE
Cosmos 2227 Rocket 2.3 20:07:44 10° WNW 20:13:26 69° N 20:16:28 28° E
Cosmos 2082 Rocket 4.3 20:09:44 10° WNW 20:14:22 26° WSW 20:18:59 10° SSW
Cosmos 1300 2.7 20:10:49 10° S 20:14:34 53° E 20:18:19 10° NNE
Cosmos 1459 Rocket 4.3 20:09:11 10° NNW 20:15:20 68° W 20:21:32 10° S
GEOS 3 Rocket 3.7 20:14:19 31° ESE 20:16:46 63° S 20:21:56 10° W
MetOp-B 4.2 20:14:12 29° ESE 20:16:51 61° NE 20:22:10 10° NNW
Cosmos 2297 Rocket 2.3 20:12:46 10° WNW 20:18:27 70° N 20:21:18 30° E
CZ-4B R/B 4.2 20:16:49 10° N 20:18:31 14° NW 20:20:13 10° WNW
IGS 5A 4.2 20:18:50 33° ENE 20:19:28 35° NE 20:23:15 10° NNW
Cosmos 2150 Rocket 4.3 20:14:24 10° NW 20:19:51 69° SW 20:23:25 22° SSE
Cosmos 2082 3.9 20:15:00 10° WNW 20:20:42 67° N 20:23:41 29° E
Cosmos 2227 4.4 20:16:21 10° W 20:22:06 71° NNW 20:25:46 23° ENE
Cosmos 1339 Rocket 4.5 20:16:09 10° SSW 20:22:19 88° WNW 20:28:37 10° NNE
Ariane Rocket 4.2 20:19:56 10° S 20:24:47 42° W 20:29:40 10° NNW
CZ-2C R/B 4.2 20:20:50 10° NNE 20:24:36 37° E 20:24:36 37° E
Cosmos 1302 Rocket 4.4 20:20:10 10° WSW 20:25:25 64° NNW 20:30:02 14° NE
ATLAS CENTAUR R/B 2.5 20:21:11 10° W 20:25:35 40° SSW 20:27:18 28° SSE
CZ-2C R/B 3.3 20:22:04 19° SSE 20:26:21 87° ENE 20:32:03 10° NNW
Cosmos 1766 Rocket 3.9 20:22:57 10° NNW 20:27:16 64° WSW 20:30:54 14° S
SL-16 R/B 4.1 20:22:31 10° NE 20:27:49 30° NNW 20:33:05 10° WNW
Cosmos 1437 3.0 20:25:26 10° NNW 20:28:05 52° NNE 20:28:05 52° NNE
CZ-4 R/B 4.2 20:27:17 10° SW 20:30:29 20° W 20:33:42 10° NW
SL-24 R/B - RUBIN 2 4.3 20:25:12 10° WSW 20:30:37 62° S 20:33:05 35° ESE
Cosmos 1992 Rocket 4.0 20:25:33 10° SW 20:30:48 82° NW 20:35:47 12° NE
Terra 2.6 20:31:19 32° ENE 20:32:22 36° NE 20:36:43 10° NNW
Okean 3 Rocket 4.4 20:29:32 10° NNW 20:33:59 52° W 20:38:23 10° S
Cosmos 1500 Rocket 3.5 20:29:46 10° NNW 20:34:18 76° ENE 20:35:48 41° SE
Cosmos 1844 Rocket 2.6 20:31:01 10° SW 20:36:41 84° SSE 20:40:31 22° ENE
Cosmos 304 Rocket 4.2 20:31:57 10° WSW 20:36:44 63° NNW 20:40:28 17° NE
Meteor 2-1 Rocket 4.2 20:31:26 10° S 20:36:53 59° ESE 20:42:27 10° NNE
Cosmos 292 Rocket 3.6 20:34:56 10° SW 20:39:42 78° SE 20:43:17 18° NE
Cosmos 1408 Rocket 3.7 20:35:31 10° NNW 20:39:50 69° WSW 20:42:18 25° S
Cosmos 1666 Rocket 4.1 20:37:13 10° NNW 20:41:33 42° NE 20:41:58 41° ENE
Cosmos 1452 Rocket 4.3 20:36:29 10° WNW 20:41:35 46° N 20:44:36 23° ENE
SPOT 1/Viking Rocket 3.7 20:40:52 41° ESE 20:42:20 55° NE 20:47:23 10° NNW
MetOp-A 4.2 20:39:20 24° SSE 20:42:39 82° WSW 20:48:04 10° NNW
Cosmos 1408 2.9 20:39:07 10° NNW 20:42:51 67° WSW 20:44:04 39° S
Resurs 01 Rocket 1.6 20:42:28 36° SSE 20:44:18 83° WSW 20:48:48 10° NNW
Cosmos 1072 Rocket 4.5 20:38:57 10° NNW 20:45:10 64° ENE 20:47:38 37° SE
Cosmos 371 Rocket 4.0 20:41:12 10° W 20:45:54 50° NNW 20:49:06 20° NE
ADEOS Rocket 3.6 20:39:55 10° NNE 20:47:35 55° E 20:54:55 10° S
USA 186 3.1 20:47:40 26° WSW 20:47:48 27° W 20:49:56 10° NW
Cosmos 1727 Rocket 4.0 20:41:59 10° SSW 20:48:12 84° WNW 20:54:27 10° NNE
Cosmos 1464 Rocket 4.1 20:42:10 10° NNW 20:48:32 64° ENE 20:51:01 37° SE
Cosmos 1633 Rocket 3.5 20:50:06 10° NNW 20:54:18 43° NE 20:54:21 43° ENE
SJ-6B 4.0 20:52:53 17° SSW 20:55:25 39° W 20:58:58 10° NNW
Resurs 1-3 4.0 20:53:55 30° S 20:56:01 63° WSW 21:00:24 10° NNW
Cosmos 1908 4.3 20:52:37 10° SW 20:56:25 47° WNW 21:00:12 10° NNE
SKYMED 2 4.4 20:52:23 10° NNE 20:56:39 52° NW 21:00:52 10° SW
ATLAS 5 CENTAUR R/B 2.2 20:52:19 10° WSW 20:56:58 49° S 20:57:38 46° SE
Spot 2 Rocket 3.4 20:55:31 42° SSE 20:57:19 88° ENE 21:02:28 10° NNW
Cosmos 1953 4.5 20:54:43 10° WSW 20:58:16 27° NW 21:01:49 10° NNE
SPOT 5 3.3 20:57:49 45° E 20:59:02 56° NE 21:04:09 10° NNW
CZ-2C R/B 3.9 20:54:41 10° NNE 20:58:10 25° ENE 20:58:10 25° ENE
Cosmos 2219 3.1 20:54:34 10° WNW 21:00:18 85° NNE 21:02:02 47° ESE
Cosmos 1633 3.5 20:57:00 10° NNW 20:59:41 36° NNE 20:59:41 36° NNE
Cosmos 1812 Rocket 3.8 20:56:20 10° SSW 21:00:49 72° WNW 21:05:19 10° NNE
COSMOS 2487 2.8 20:58:18 10° NW 21:01:44 56° SW 21:01:44 56° SW
SPOT 3 Rocket 4.5 20:57:17 10° S 21:02:15 46° W 21:07:19 10° NNW
Cosmos 1725 Rocket 4.5 20:57:42 10° NNW 21:03:52 60° W 21:10:03 10° S
ERS-1 Rocket 3.0 21:02:55 52° ESE 21:03:55 65° ENE 21:08:56 10° NNW
Cosmos 2233 Rocket 4.1 20:57:56 10° NNW 21:04:12 75° WSW 21:08:30 22° S
Cosmos 1726 3.9 21:01:21 10° WSW 21:04:43 33° NW 21:08:05 10° NNE
Cosmos 2278 Rocket 2.1 21:00:27 10° SW 21:06:05 64° SE 21:08:42 32° ENE
Cosmos 2123 Rocket 3.9 21:01:06 16° S 21:06:07 66° E 21:12:20 10° NNE
Cosmos 2151 4.5 21:04:06 10° NNW 21:08:04 36° W 21:11:41 12° SSW
Cosmos 1607 3.9 21:02:41 10° W 21:08:48 66° S 21:10:31 47° SE
Timation 1 Rocket 4.4 21:03:49 10° W 21:09:49 78° N 21:12:32 35° ENE
Cosmos 1470 Rocket 4.3 21:05:50 10° NNW 21:09:48 39° NE 21:09:48 39° NE
Cosmos 1844 3.7 21:07:00 10° WSW 21:12:49 87° NNW 21:16:08 27° ENE
Meteor 2-10 Rocket 4.1 21:15:02 38° ENE 21:15:02 38° ENE 21:18:40 10° NNE
Cosmos 2084 4.4 21:10:48 10° WSW 21:14:06 36° SSW 21:14:06 36° SSW
Cosmos 1000 Rocket 4.4 21:08:59 10° SSW 21:15:15 89° WNW 21:21:37 10° NNE
Cosmos 972 Rocket 4.5 21:10:20 10° NW 21:15:21 58° WSW 21:17:26 35° S
Cosmos 1825 3.0 21:14:29 10° NNW 21:18:07 46° W 21:18:50 40° SW
Cosmos 1455 4.2 21:21:07 19° NNE 21:21:07 19° NNE 21:22:19 10° NNE
H-2A R/B 3.1 21:14:06 13° SSW 21:18:46 45° W 21:24:01 10° NNW
Cosmos 1932 4.5 21:13:59 10° WSW 21:20:19 66° S 21:22:03 48° ESE
Cosmos 1238 Rocket 4.3 21:14:05 10° NNW 21:20:44 72° W 21:24:35 26° S
Cosmos 921 Rocket 3.8 21:19:07 10° WSW 21:23:30 52° NW 21:26:43 17° NE
Cosmos 2263 Rocket 2.4 21:19:12 10° W 21:24:50 67° N 21:26:52 39° ENE
Cosmos 489 Rocket 4.5 21:19:01 10° SW 21:25:16 82° NW 21:31:33 10° NE
Cosmos 2034 Rocket 3.9 21:21:09 10° NNW 21:27:23 75° ENE 21:28:57 52° SE
ARGOS 4.3 21:23:54 14° SSW 21:28:17 42° W 21:33:28 10° NNW
Meteor 2-3 Rocket 4.2 21:22:54 10° NNW 21:28:35 60° WSW 21:31:23 30° S
Cosmos 2221 4.3 21:34:37 21° NE 21:34:37 21° NE 21:36:15 10° NNE
SWAS 4.4 21:28:19 10° WSW 21:32:25 80° W 21:32:25 80° W
Cosmos 2056 Rocket 3.9 21:28:04 10° WNW 21:33:12 53° NNE 21:34:11 46° ENE
Landsat 7 3.7 21:36:41 77° SSE 21:37:02 88° WSW 21:41:51 10° NNW
Cosmos 1743 Rocket 4.4 21:33:25 10° NNW 21:37:38 46° W 21:38:42 37° SW
Cosmos 1624 Rocket 4.4 21:33:10 10° NW 21:38:23 55° NNE 21:39:21 48° ENE
Cosmos 724 4.2 21:34:34 10° WSW 21:40:35 70° S 21:41:20 62° SE
ALOS 2 4.0 21:41:01 27° NE 21:41:01 27° NE 21:44:39 10° NNW
CARTOSAT-1 3.7 21:42:55 70° N 21:42:55 70° N 21:46:51 10° NNW
Cosmos 1805 Rocket 3.6 21:38:51 10° NNW 21:43:14 70° WSW 21:43:14 70° WSW
SJ 16-02 4.0 21:41:42 10° WNW 21:44:23 16° W 21:47:04 10° SW
COSMO-SKYMED 1 4.3 21:40:37 10° NNE 21:44:30 32° NW 21:48:23 10° WSW
Cosmos 1125 Rocket 4.4 21:39:43 10° NW 21:44:42 41° WSW 21:46:08 34° SSW
Cosmos-2242 3.2 21:44:44 56° WSW 21:45:27 68° WNW 21:49:47 10° NNE
Geosat 4.4 21:45:18 42° NE 21:46:44 58° N 21:51:41 10° WNW
Cosmos 1862 3.9 21:42:55 10° NNW 21:46:04 52° N 21:46:04 52° N
Cosmos 1818 4.1 21:42:17 10° W 21:47:28 44° SSW 21:47:45 44° SSW
Cosmos 1300 4.0 21:46:45 10° SW 21:50:24 40° NW 21:54:03 10° NNE
Sich 1 3.2 21:46:44 10° NNW 21:50:39 69° WNW 21:50:39 69° WNW
IGS 5A 3.8 21:55:18 63° NW 21:55:18 63° NW 21:58:56 10° NNW
GEOS 3 Rocket 4.1 21:55:26 45° SSW 21:55:26 45° SSW 22:00:24 10° WNW
Meteor 2-11 Rocket 4.3 21:49:33 10° NNW 21:55:41 90° ENE 21:56:45 63° SSE
USA 238 DEB 4.2 21:50:37 10° SW 21:55:39 42° S 21:55:39 42° S
USA 238 4.2 21:50:44 10° SW 21:55:43 41° S 21:55:43 41° S
Cosmos 2227 Rocket 2.0 21:52:04 10° WNW 21:57:48 82° SW 21:58:17 74° SSE
CZ-2C R/B 3.9 21:58:02 10° NNE 22:02:31 69° WNW 22:02:50 66° W
Cosmos 2297 Rocket 2.0 21:57:04 10° WNW 22:02:45 78° SW 22:03:06 75° S
ATLAS CENTAUR R/B 3.5 22:00:24 10° W 22:03:29 19° SW 22:03:29 19° SW
Cosmos 2082 3.5 21:59:26 10° WNW 22:05:10 90° SW 22:05:32 80° ESE
Cosmos 2227 4.3 22:01:02 10° WNW 22:06:48 72° NNE 22:07:41 61° ENE
ARGOS Delta rocket 4.0 22:10:23 62° NNW 22:10:23 62° NNW 22:14:05 10° NNW
Terra 1.9 22:10:12 77° NNW 22:10:12 77° NNW 22:14:40 10° NNW
SL-16 R/B 4.1 22:06:10 16° ENE 22:10:07 29° NNE 22:15:23 10° NW
Cosmos 1634 Rocket 3.9 22:08:00 10° NNW 22:14:22 75° ENE 22:14:59 69° ESE
Cosmos 1666 Rocket 4.1 22:15:12 10° NNW 22:19:07 57° WNW 22:19:07 57° WNW
Cosmos 292 Rocket 4.4 22:15:35 10° W 22:20:16 53° NNW 22:21:46 37° NNE
Cosmos 1371 Rocket 4.1 22:15:05 10° NW 22:20:24 72° NNE 22:20:24 72° NNE
Cosmos 1844 Rocket 2.9 22:15:14 10° W 22:20:53 68° N 22:22:09 52° NE
Cosmos 1933 Rocket 4.3 22:16:34 10° NNW 22:19:57 50° N 22:19:57 50° N
Resurs 01 Rocket 3.5 22:20:03 22° WSW 22:21:25 26° W 22:25:11 10° NNW
SPOT 1/Viking Rocket 3.9 22:21:30 55° WSW 22:21:52 56° WSW 22:26:58 10° NNW
Cosmos 1452 Rocket 3.9 22:19:20 10° WNW 22:24:33 54° NNE 22:24:54 53° NE
Cosmos 371 Rocket 4.2 22:22:30 10° WNW 22:27:08 43° N 22:27:45 41° NNE
DMSP B5D2-2 4.3 22:22:57 10° NNE 22:27:23 62° NE 22:27:23 62° NE
Cosmos 1633 Rocket 3.9 22:28:00 10° NNW 22:31:26 48° NW 22:31:26 48° NW
ADEOS Rocket 3.7 22:25:39 10° NNE 22:33:28 75° WNW 22:40:58 10° SW
Meteor 1-11 Rocket 4.4 22:28:29 10° NNW 22:33:44 42° NE 22:33:53 41° NE
Meteor 2-20 Rocket 4.4 22:34:08 72° ENE 22:34:08 72° ENE 22:39:56 10° NNE
Helios 1A 4.3 22:36:13 37° N 22:36:13 37° N 22:39:01 10° NNW
SPOT 5 3.4 22:37:04 57° WSW 22:37:11 58° WSW 22:42:24 10° NNW
CZ-2C R/B 2.9 22:35:00 10° NNE 22:39:41 60° NE 22:39:41 60° NE
ATLAS 5 CENTAUR R/B 3.2 22:36:20 10° W 22:39:10 32° WSW 22:39:10 32° WSW
ERS-1 Rocket 3.7 22:42:55 46° WSW 22:42:59 46° W 22:47:52 10° NNW
Cosmos 2219 3.7 22:38:50 10° NW 22:43:56 49° WSW 22:43:56 49° WSW
Cosmos 1420 Rocket 4.3 22:42:13 10° NW 22:47:11 62° N 22:47:11 62° N
Cosmos 2278 Rocket 2.2 22:44:30 10° WSW 22:50:13 76° NNW 22:50:32 74° NNE
Spot 4 4.4 22:53:23 56° NNW 22:53:23 56° NNW 22:57:14 10° NNW
Cosmos 1455 4.3 22:56:02 25° N 22:56:02 25° N 22:58:00 10° NNE
Meteor 2-20 4.4 22:54:05 77° WSW 22:54:27 82° WNW 23:00:37 10° NNE
Cosmos 1607 4.5 22:49:42 10° WNW 22:54:38 45° WSW 22:54:38 45° WSW
Timation 1 Rocket 4.3 22:49:43 10° WNW 22:55:39 82° N 22:55:39 82° N
Meteor 2-10 Rocket 3.8 22:56:10 62° NW 22:56:10 62° NW 23:00:55 10° NNE
Meteor 1-20 Rocket 4.3 22:51:19 10° NNW 22:56:38 78° NW 22:56:38 78° NW
Cosmos 1844 3.9 22:51:33 10° W 22:57:22 68° N 22:58:00 63° NE
Meteor 1-27 4.3 23:02:12 73° NNW 23:02:12 73° NNW 23:07:26 10° NNE
IRAS Rocket 4.3 23:04:06 74° NNW 23:04:06 74° NNW 23:09:08 10° NNW
Cosmos 2263 Rocket 2.3 23:03:31 10° WNW 23:08:32 69° NW 23:08:32 69° NW
Cosmos 2221 4.1 23:11:27 32° N 23:11:27 32° N 23:13:58 10° NNE
Cosmos 2279 Rocket 3.9 23:05:13 10° NNW 23:11:19 84° WNW 23:11:19 84° WNW
Meteor 2-2 Rocket 4.4 23:15:01 78° NNW 23:15:01 78° NNW 23:20:46 10° NNE
Tsikada Rocket 4.1 23:15:58 66° NE 23:15:58 66° NE 23:21:36 10° NNE
H-2A R/B 4.3 23:14:25 19° NE 23:15:15 20° NNE 23:18:34 10° NNW
Cosmos 2056 Rocket 4.1 23:10:30 10° NW 23:14:30 53° NW 23:14:30 53° NW
ALOS 2 4.0 23:18:25 37° N 23:18:25 37° N 23:21:11 10° NNW
Mayak 1.2 23:30:13 10° NNE 23:31:20 17° NNE 23:31:20 17° NNE
Cosmos 2227 Rocket 3.4 23:36:13 10° NW 23:40:05 34° W 23:40:05 34° W
Cosmos 2369 Rocket 4.0 23:48:29 21° ENE 23:48:29 21° ENE 23:50:16 10° ENE
Cosmos 2297 Rocket 3.5 23:41:13 10° NW 23:44:54 31° W 23:44:54 31° W
Terra 3.5 23:49:06 27° WNW 23:49:06 27° WNW 23:52:24 10° NNW
SL-16 R/B 3.4 23:51:16 37° ENE 23:52:41 43° NE 23:58:32 10° NNW
